Location: Nitra
(48.3167°N, 18.0833°E)
Time: 17:53:11
(UTC+01:00)

STARLINK-1550 - Pass Details

Date: 24 September 2020
Orbit: 378 x 381 km, 53.0° (Epoch: 30 October)

Event Time Altitude Azimuth Distance (km) Brightness Sun altitude
Exits shadow 04:59:16 24° 320° (NW) 844 4.4 -16.9°
Maximum altitude 05:00:32 35° 7° (N) 647 4.2 -16.7°
Drops below altitude 10° 05:03:27 10° 75° (ENE) 1,403 7.1 -16.2°
Sets 05:05:37 0° 85° (E) 2,255 8.4 -15.9°
